Siloam Springs, AR

6:51 AM CST on February 06, 2016 (GMT -0600)
Smith

Weather History for KSLG - May, 2014

Change the Weather History Date:

Thursday, May 15, 2014

  Actual Average Record
Temperature  
Mean Temperature 50 °F -  
Max Temperature 64 °F 73 °F 84 °F (1998)
Min Temperature 37 °F 54 °F 37 °F (2014)
Degree Days  
Heating Degree Days 14    
Moisture  
Dew Point 37 °F    
Average Humidity 61    
Maximum Humidity 81    
Minimum Humidity 39    
Precipitation  
Precipitation 0.00 in - - ()
Sea Level Pressure  
Sea Level Pressure 30.16 in    
Wind  
Wind Speed 6 mph (WNW)    
Max Wind Speed 18 mph    
Max Gust Speed 26 mph    
Visibility 10 miles    
Events      
Averages and records for this station are not official NWS values.
T = Trace of Precipitation, MM = Missing Value Source: NWS Daily Summary

Daily Weather History Graph

Daily Weather History Graph

Search for Another Location

Airport or City:

Trip Planner

Search our weather history database for the weather conditions in past years. The results will help you decide how hot, cold, wet, or windy it might be!

Date:

Astronomy

May. 15, 2014 Rise Set
Actual Time 6:11 AM CDT 8:17 PM CDT
Civil Twilight 5:43 AM CDT 8:46 PM CDT
Nautical Twilight 5:08 AM CDT 9:21 PM CDT
Astronomical Twilight 4:30 AM CDT 9:58 PM CDT
Moon 9:26 PM CDT (5/15) 6:58 AM CDT (5/15)
Length of Visible Light 15h 02m
Length of Day
14h 05m
Full, 99% of the Moon is Illuminated
May 15
Full
May 21
Last Quarter
May 28
New
Jun 5
First Quarter
Jun 12
Full

Hourly Weather History & Observations

Time (CDT) Temp. Windchill Dew Point Humidity Pressure Visibility Wind Dir Wind Speed Gust Speed Precip Events Conditions
12:15 AM 42.8 °F - 33.8 °F 70% 30.20 in 10.0 mi Calm Calm - N/A   Clear
12:35 AM 42.8 °F - 35.6 °F 76% 30.19 in 10.0 mi Calm Calm - N/A   Clear
12:55 AM 42.8 °F 40.1 °F 35.6 °F 76% 30.19 in 10.0 mi SE 4.6 mph - N/A   Clear
1:15 AM 41.0 °F 38.0 °F 33.8 °F 76% 30.18 in 10.0 mi South 4.6 mph - N/A   Clear
1:35 AM 41.0 °F 39.0 °F 33.8 °F 76% 30.18 in 10.0 mi SSW 3.5 mph - N/A   Clear
1:55 AM 41.0 °F 39.0 °F 33.8 °F 76% 30.17 in 10.0 mi SSE 3.5 mph - N/A   Clear
2:15 AM 41.0 °F 39.0 °F 33.8 °F 76% 30.16 in 10.0 mi South 3.5 mph - N/A   Clear
2:35 AM 41.0 °F 39.0 °F 33.8 °F 76% 30.16 in 10.0 mi SSW 3.5 mph - N/A   Clear
2:55 AM 39.2 °F 37.0 °F 33.8 °F 81% 30.15 in 10.0 mi South 3.5 mph - N/A   Clear
3:15 AM 39.2 °F 34.2 °F 32.0 °F 75% 30.15 in 10.0 mi South 6.9 mph - N/A   Clear
3:35 AM 39.2 °F 37.0 °F 33.8 °F 81% 30.15 in 10.0 mi SSW 3.5 mph - N/A   Clear
3:55 AM 39.2 °F - 32.0 °F 75% 30.14 in 10.0 mi Calm Calm - N/A   Clear
4:15 AM 37.4 °F - 30.2 °F 75% 30.15 in 10.0 mi Calm Calm - N/A   Clear
4:35 AM 37.4 °F 34.9 °F 30.2 °F 75% 30.14 in 10.0 mi SSE 3.5 mph - N/A   Scattered Clouds
4:55 AM 39.2 °F 37.0 °F 32.0 °F 75% 30.15 in 10.0 mi SSW 3.5 mph - N/A   Mostly Cloudy
5:15 AM 39.2 °F - 33.8 °F 81% 30.15 in 10.0 mi Calm Calm - N/A   Scattered Clouds
5:35 AM 39.2 °F 37.0 °F 33.8 °F 81% 30.15 in 10.0 mi South 3.5 mph - N/A   Mostly Cloudy
5:55 AM 39.2 °F 37.0 °F 33.8 °F 81% 30.15 in 10.0 mi South 3.5 mph - N/A   Overcast
6:15 AM 39.2 °F - 33.8 °F 81% 30.16 in 10.0 mi Calm Calm - N/A   Overcast
6:35 AM 41.0 °F 37.1 °F 33.8 °F 76% 30.16 in 10.0 mi South 5.8 mph - N/A   Mostly Cloudy
6:55 AM 39.2 °F 35.0 °F 33.8 °F 81% 30.17 in 10.0 mi South 5.8 mph - N/A   Partly Cloudy
7:15 AM 42.8 °F 39.3 °F 35.6 °F 76% 30.17 in 10.0 mi South 5.8 mph - N/A   Partly Cloudy
7:35 AM 44.6 °F 40.2 °F 37.4 °F 76% 30.17 in 10.0 mi SSW 8.1 mph - N/A   Mostly Cloudy
7:55 AM 46.4 °F 41.9 °F 39.2 °F 76% 30.17 in 10.0 mi SW 9.2 mph - N/A   Overcast
8:15 AM 46.4 °F 42.4 °F 39.2 °F 76% 30.17 in 10.0 mi WSW 8.1 mph - N/A   Mostly Cloudy
8:35 AM 48.2 °F - 41.0 °F 76% 30.17 in 10.0 mi West 8.1 mph - N/A   Mostly Cloudy
8:55 AM 51.8 °F - 42.8 °F 71% 30.18 in 10.0 mi West 8.1 mph - N/A   Scattered Clouds
9:15 AM 53.6 °F - 42.8 °F 67% 30.18 in 10.0 mi West 10.4 mph - N/A   Scattered Clouds
9:35 AM 55.4 °F - 42.8 °F 63% 30.18 in 10.0 mi West 8.1 mph - N/A   Partly Cloudy
9:55 AM 55.4 °F - 42.8 °F 63% 30.18 in 10.0 mi West 5.8 mph - N/A   Clear
10:15 AM 57.2 °F - 42.8 °F 59% 30.18 in 10.0 mi West 6.9 mph - N/A   Clear
10:35 AM 57.2 °F - 44.6 °F 63% 30.18 in 10.0 mi NW 8.1 mph - N/A   Clear
10:55 AM 60.8 °F - 46.4 °F 59% 30.19 in 10.0 mi WNW 11.5 mph - N/A   Clear
11:15 AM 60.8 °F - 46.4 °F 59% 30.19 in 10.0 mi NNW 15.0 mph 18.4 mph N/A   Partly Cloudy
11:35 AM 60.8 °F - 44.6 °F 55% 30.19 in 10.0 mi NW 10.4 mph 17.3 mph N/A   Clear
11:55 AM 60.8 °F - 44.6 °F 55% 30.18 in 10.0 mi NNW 9.2 mph - N/A   Clear
12:15 PM 62.6 °F - 44.6 °F 52% 30.18 in 10.0 mi NNW 11.5 mph 16.1 mph N/A   Clear
12:35 PM 64.4 °F - 44.6 °F 49% 30.18 in 10.0 mi NW 10.4 mph 16.1 mph N/A   Clear
12:55 PM 62.6 °F - 44.6 °F 52% 30.17 in 10.0 mi NW 11.5 mph - N/A   Scattered Clouds
1:15 PM 64.4 °F - 44.6 °F 49% 30.17 in 10.0 mi NNW 13.8 mph 17.3 mph N/A   Scattered Clouds
2:15 PM 64.4 °F - 44.6 °F 49% 30.16 in 10.0 mi North 12.7 mph 20.7 mph N/A   Mostly Cloudy
2:35 PM 64.4 °F - 44.6 °F 49% 30.16 in 10.0 mi NNW 17.3 mph 21.9 mph N/A   Scattered Clouds
2:55 PM 64.4 °F - 44.6 °F 49% 30.16 in 10.0 mi NW 12.7 mph - N/A   Partly Cloudy
3:15 PM 62.6 °F - 42.8 °F 48% 30.15 in 10.0 mi NNW 18.4 mph 23.0 mph N/A   Partly Cloudy
3:35 PM 62.6 °F - 42.8 °F 48% 30.14 in 10.0 mi NNW 18.4 mph 23.0 mph N/A   Clear
3:55 PM 62.6 °F - 39.2 °F 42% 30.15 in 10.0 mi NNW 16.1 mph - N/A   Scattered Clouds
4:15 PM 60.8 °F - 35.6 °F 39% 30.16 in 10.0 mi NNW 17.3 mph 24.2 mph N/A   Mostly Cloudy
4:35 PM 57.2 °F - 37.4 °F 48% 30.16 in 10.0 mi NW 17.3 mph 26.5 mph N/A   Mostly Cloudy
4:55 PM 60.8 °F - 39.2 °F 45% 30.15 in 10.0 mi NW 17.3 mph 21.9 mph N/A   Partly Cloudy
5:15 PM 60.8 °F - 37.4 °F 42% 30.13 in 10.0 mi NW 15.0 mph - N/A   Clear
5:35 PM 60.8 °F - 37.4 °F 42% 30.13 in 10.0 mi NNW 16.1 mph 19.6 mph N/A   Clear
5:55 PM 59.0 °F - 35.6 °F 42% 30.13 in 10.0 mi NNW 11.5 mph - N/A   Clear
6:15 PM 59.0 °F - 37.4 °F 45% 30.14 in 10.0 mi NNW 10.4 mph - N/A   Clear
6:35 PM 59.0 °F - 35.6 °F 42% 30.14 in 10.0 mi NNW 16.1 mph - N/A   Clear
6:55 PM 59.0 °F - 35.6 °F 42% 30.15 in 10.0 mi NNW 10.4 mph - N/A   Clear
7:15 PM 57.2 °F - 33.8 °F 41% 30.15 in 10.0 mi NW 10.4 mph - N/A   Clear
7:35 PM 57.2 °F - 35.6 °F 44% 30.15 in 10.0 mi NW 10.4 mph - N/A   Clear
7:55 PM 53.6 °F - 33.8 °F 47% 30.15 in 10.0 mi NNW 6.9 mph - N/A   Clear
8:15 PM 51.8 °F - 33.8 °F 50% 30.16 in 10.0 mi NNW 4.6 mph - N/A   Clear
8:35 PM 51.8 °F - 32.0 °F 47% 30.16 in 10.0 mi NNW 3.5 mph - N/A   Clear
8:55 PM 51.8 °F - 32.0 °F 47% 30.16 in 10.0 mi Calm Calm - N/A   Clear
9:15 PM 48.2 °F - 32.0 °F 54% 30.16 in 10.0 mi Calm Calm - N/A   Clear
9:35 PM 50.0 °F - 30.2 °F 47% 30.17 in 10.0 mi Calm Calm - N/A   Clear
9:55 PM 48.2 °F - 30.2 °F 50% 30.17 in 10.0 mi Calm Calm - N/A   Clear
10:15 PM 46.4 °F - 33.8 °F 62% 30.17 in 7.0 mi Calm Calm - N/A   Clear
10:35 PM 46.4 °F - 32.0 °F 57% 30.17 in 10.0 mi Calm Calm - N/A   Clear
10:55 PM 44.6 °F - 32.0 °F 61% 30.17 in 10.0 mi Calm Calm - N/A   Clear
11:15 PM 44.6 °F - 32.0 °F 61% 30.16 in 10.0 mi Calm Calm - N/A   Clear
11:35 PM 44.6 °F - 33.8 °F 66% 30.16 in 10.0 mi Calm Calm - N/A   Clear
11:55 PM 42.8 °F - 33.8 °F 70% 30.16 in 10.0 mi Calm Calm - N/A   Clear